"Sample Date","Sample Time","Sample Value","Units","Flow Rate","Sample Interval","Number Channels","Micron Size 0","Counts/Channel 0","Micron Size 1","Counts/Channel 1","Micron Size 2","Counts/Channel 2","Micron Size 3","Counts/Channel 3","Micron Size 4","Counts/Channel 4","Micron Size 5","Counts/Channel 5","Micron Size 6","Counts/Channel 6","Micron Size 7","Counts/Channel 7","Micron Size 8","Counts/Channel 8","Micron Size 9","Counts/Channel 9","Micron Size 10","Counts/Channel 10","Micron Size 11","Counts/Channel 11","Micron Size 12","Counts/Channel 12","Micron Size 13","Counts/Channel 13","Micron Size 14","Counts/Channel 14","Micron Size 15","Counts/Channel 15","Micron Size 16","Counts/Channel 16","Micron Size 17","Counts/Channel 17","Micron Size 18","Counts/Channel 18","Micron Size 19","Counts/Channel 19","Micron Size 20","Counts/Channel 20","Micron Size 21","Counts/Channel 21","Micron Size 22","Counts/Channel 22","Micron Size 23","Counts/Channel 23","Micron Size 24","Counts/Channel 24","Micron Size 25","Counts/Channel 25","Micron Size 26","Counts/Channel 26","Micron Size 27","Counts/Channel 27","Micron Size 28","Counts/Channel 28","Micron Size 29","Counts/Channel 29","Micron Size 30","Counts/Channel 30","Micron Size 31","Counts/Channel 31"
"04/02/08","10:00:01",17057.000,"cc",28308.572,6.00,6,0.100,15507.000,0.200,475.000,0.300,400.000,0.500,483.000,1.000,192.000,5.000,0
"04/02/08","10:00:07",17228.000,"cc",28352.461,6.00,6,0.100,15577.000,0.200,485.000,0.300,391.000,0.500,563.000,1.000,212.000,5.000,0
"04/02/08","10:00:13",16877.000,"cc",28302.797,6.00,6,0.100,15267.000,0.200,489.000,0.300,428.000,0.500,509.000,1.000,184.000,5.000,0
"04/02/08","10:00:19",16989.000,"cc",28308.650,6.00,6,0.100,15436.000,0.200,522.000,0.300,370.000,0.500,471.000,1.000,190.000,5.000,0
"04/02/08","10:00:25",17209.000,"cc",28278.256,6.00,6,0.100,15463.000,0.200,557.000,0.300,421.000,0.500,550.000,1.000,218.000,5.000,0
"04/02/08","10:00:31",16752.000,"cc",28362.969,6.00,6,0.100,15147.000,0.200,482.000,0.300,434.000,0.500,476.000,1.000,213.000,5.000,0
"04/02/08","10:00:37",16786.000,"cc",28278.598,6.00,6,0.100,15156.000,0.200,533.000,0.300,417.000,0.500,506.000,1.000,174.000,5.000,0
"04/02/08","10:00:43",16519.000,"cc",28333.516,6.00,6,0.100,14916.000,0.200,464.000,0.300,421.000,0.500,539.000,1.000,179.000,5.000,0
"04/02/08","10:00:49",16483.000,"cc",28377.049,6.00,6,0.100,14947.000,0.200,445.000,0.300,408.000,0.500,509.000,1.000,174.000,5.000,0
"04/02/08","10:00:55",16561.000,"cc",28346.098,6.00,6,0.100,15050.000,0.200,480.000,0.300,378.000,0.500,477.000,1.000,176.000,5.000,0
"04/02/08","10:01:01",16268.000,"cc",28237.357,6.00,6,0.100,14711.000,0.200,460.000,0.300,404.000,0.500,511.000,1.000,182.000,5.000,0
"04/02/08","10:01:07",16721.000,"cc",28376.383,6.00,6,0.100,15039.000,0.200,514.000,0.300,435.000,0.500,525.000,1.000,208.000,5.000,0
"04/02/08","10:01:13",16797.000,"cc",28391.260,6.00,6,0.100,15131.000,0.200,526.000,0.300,407.000,0.500,505.000,1.000,228.000,5.000,0
"04/02/08","10:01:19",16249.000,"cc",28302.156,6.00,6,0.100,14830.000,0.200,419.000,0.300,350.000,0.500,466.000,1.000,184.000,5.000,0
"04/02/08","10:01:25",16184.000,"cc",28339.822,6.00,6,0.100,14783.000,0.200,433.000,0.300,344.000,0.500,453.000,1.000,171.000,5.000,0
"04/02/08","10:01:31",16248.000,"cc",28265.201,6.00,6,0.100,14667.000,0.200,505.000,0.300,378.000,0.500,532.000,1.000,166.000,5.000,0
"04/02/08","10:01:37",16324.000,"cc",28276.053,6.00,6,0.100,14687.000,0.200,491.000,0.300,440.000,0.500,511.000,1.000,195.000,5.000,0
"04/02/08","10:01:43",15993.000,"cc",28310.684,6.00,6,0.100,14466.000,0.200,456.000,0.300,393.000,0.500,487.000,1.000,191.000,5.000,0
"04/02/08","10:01:49",16065.000,"cc",28347.016,6.00,6,0.100,14550.000,0.200,478.000,0.300,392.000,0.500,457.000,1.000,188.000,5.000,0
"04/02/08","10:01:55",16005.000,"cc",28368.961,6.00,6,0.100,14522.000,0.200,491.000,0.300,359.000,0.500,435.000,1.000,198.000,5.000,0
"04/02/08","10:02:01",16369.000,"cc",28266.375,6.00,6,0.100,14727.000,0.200,519.000,0.300,441.000,0.500,496.000,1.000,186.000,5.000,0
"04/02/08","10:02:07",16828.000,"cc",28284.766,6.00,6,0.100,15019.000,0.200,573.000,0.300,449.000,0.500,558.000,1.000,229.000,5.000,0
"04/02/08","10:02:13",16370.000,"cc",28332.934,6.00,6,0.100,14686.000,0.200,539.000,0.300,407.000,0.500,516.000,1.000,222.000,5.000,0
"04/02/08","10:02:19",16019.000,"cc",28341.150,6.00,6,0.100,14655.000,0.200,435.000,0.300,300.000,0.500,414.000,1.000,215.000,5.000,0
"04/02/08","10:02:25",15989.000,"cc",28344.842,6.00,6,0.100,14573.000,0.200,429.000,0.300,345.000,0.500,460.000,1.000,182.000,5.000,0
"04/02/08","10:02:31",16433.000,"cc",28340.986,6.00,6,0.100,14963.000,0.200,468.000,0.300,375.000,0.500,434.000,1.000,193.000,5.000,0
"04/02/08","10:02:37",16313.000,"cc",28298.065,6.00,6,0.100,14803.000,0.200,476.000,0.300,378.000,0.500,461.000,1.000,194.000,5.000,1.000
"04/02/08","10:02:43",16170.000,"cc",28350.537,6.00,6,0.100,14717.000,0.200,451.000,0.300,325.000,0.500,475.000,1.000,202.000,5.000,0
"04/02/08","10:02:49",16210.000,"cc",28299.912,6.00,6,0.100,14631.000,0.200,499.000,0.300,378.000,0.500,516.000,1.000,186.000,5.000,0
"04/02/08","10:02:55",16344.000,"cc",28212.770,6.00,6,0.100,14921.000,0.200,476.000,0.300,335.000,0.500,440.000,1.000,172.000,5.000,0
"04/02/08","10:03:01",16529.000,"cc",28286.748,6.00,6,0.100,15114.000,0.200,451.000,0.300,342.000,0.500,449.000,1.000,173.000,5.000,0
"04/02/08","10:03:07",16629.000,"cc",28329.379,6.00,6,0.100,15123.000,0.200,464.000,0.300,392.000,0.500,457.000,1.000,193.000,5.000,0
"04/02/08","10:03:13",16672.000,"cc",28376.494,6.00,6,0.100,15070.000,0.200,478.000,0.300,409.000,0.500,509.000,1.000,206.000,5.000,0
"04/02/08","10:03:19",16532.000,"cc",28268.609,6.00,6,0.100,15017.000,0.200,472.000,0.300,360.000,0.500,486.000,1.000,197.000,5.000,0
"04/02/08","10:03:25",16463.000,"cc",28332.357,6.00,6,0.100,15001.000,0.200,470.000,0.300,359.000,0.500,459.000,1.000,174.000,5.000,0
"04/02/08","10:03:31",16701.000,"cc",28383.965,6.00,6,0.100,15250.000,0.200,431.000,0.300,365.000,0.500,442.000,1.000,213.000,5.000,0
"04/02/08","10:03:37",16929.000,"cc",28321.986,6.00,6,0.100,15356.000,0.200,497.000,0.300,416.000,0.500,475.000,1.000,185.000,5.000,0
"04/02/08","10:03:43",16922.000,"cc",28228.178,6.00,6,0.100,15205.000,0.200,522.000,0.300,416.000,0.500,537.000,1.000,242.000,5.000,0
"04/02/08","10:03:49",16634.000,"cc",28317.986,6.00,6,0.100,14992.000,0.200,487.000,0.300,421.000,0.500,529.000,1.000,205.000,5.000,0
"04/02/08","10:03:55",16604.000,"cc",28305.066,6.00,6,0.100,15172.000,0.200,419.000,0.300,384.000,0.500,453.000,1.000,176.000,5.000,0
"04/02/08","10:04:01",16565.000,"cc",28368.373,6.00,6,0.100,15066.000,0.200,466.000,0.300,373.000,0.500,467.000,1.000,193.000,5.000,0
"04/02/08","10:04:07",16401.000,"cc",28356.856,6.00,6,0.100,14877.000,0.200,473.000,0.300,358.000,0.500,486.000,1.000,207.000,5.000,0
"04/02/08","10:04:13",16532.000,"cc",28272.621,6.00,6,0.100,15059.000,0.200,430.000,0.300,372.000,0.500,461.000,1.000,210.000,5.000,0
"04/02/08","10:04:19",16046.000,"cc",28256.178,6.00,6,0.100,14615.000,0.200,471.000,0.300,361.000,0.500,411.000,1.000,188.000,5.000,0
"04/02/08","10:04:25",16272.000,"cc",28383.588,6.00,6,0.100,14829.000,0.200,464.000,0.300,323.000,0.500,476.000,1.000,180.000,5.000,0
"04/02/08","10:04:31",16500.000,"cc",28267.272,6.00,6,0.100,15040.000,0.200,462.000,0.300,356.000,0.500,462.000,1.000,180.000,5.000,0
"04/02/08","10:04:37",16314.000,"cc",28303.500,6.00,6,0.100,14918.000,0.200,440.000,0.300,367.000,0.500,419.000,1.000,170.000,5.000,0
"04/02/08","10:04:43",16635.000,"cc",28307.625,6.00,6,0.100,15267.000,0.200,415.000,0.300,359.000,0.500,424.000,1.000,170.000,5.000,0
"04/02/08","10:04:49",16383.000,"cc",28344.512,6.00,6,0.100,14894.000,0.200,439.000,0.300,358.000,0.500,506.000,1.000,186.000,5.000,0
"04/02/08","10:04:55",16373.000,"cc",28338.369,6.00,6,0.100,14907.000,0.200,462.000,0.300,408.000,0.500,419.000,1.000,177.000,5.000,0
"04/02/08","10:05:01",16580.000,"cc",28295.406,6.00,6,0.100,15092.000,0.200,469.000,0.300,389.000,0.500,450.000,1.000,180.000,5.000,0
"04/02/08","10:05:07",16958.000,"cc",28359.014,6.00,6,0.100,15374.000,0.200,501.000,0.300,401.000,0.500,486.000,1.000,196.000,5.000,0
"04/02/08","10:05:13",16795.000,"cc",28298.285,6.00,6,0.100,15095.000,0.200,511.000,0.300,400.000,0.500,563.000,1.000,226.000,5.000,0
"04/02/08","10:05:19",16498.000,"cc",28332.840,6.00,6,0.100,14949.000,0.200,491.000,0.300,375.000,0.500,469.000,1.000,214.000,5.000,0
"04/02/08","10:05:25",16551.000,"cc",28350.965,6.00,6,0.100,15020.000,0.200,477.000,0.300,358.000,0.500,514.000,1.000,182.000,5.000,0
"04/02/08","10:05:31",16858.000,"cc",28350.770,6.00,6,0.100,15263.000,0.200,531.000,0.300,380.000,0.500,480.000,1.000,204.000,5.000,0
"04/02/08","10:05:37",16837.000,"cc",28324.936,6.00,6,0.100,15246.000,0.200,508.000,0.300,377.000,0.500,499.000,1.000,207.000,5.000,0
"04/02/08","10:05:43",16927.000,"cc",28305.856,6.00,6,0.100,15398.000,0.200,472.000,0.300,365.000,0.500,492.000,1.000,200.000,5.000,0
"04/02/08","10:05:49",17213.000,"cc",28220.975,6.00,6,0.100,15582.000,0.200,510.000,0.300,413.000,0.500,526.000,1.000,182.000,5.000,0
"04/02/08","10:05:55",17056.000,"cc",28360.781,6.00,6,0.100,15466.000,0.200,490.000,0.300,393.000,0.500,493.000,1.000,214.000,5.000,0
"04/02/08","10:06:01",17063.000,"cc",28313.318,6.00,6,0.100,15559.000,0.200,476.000,0.300,356.000,0.500,483.000,1.000,189.000,5.000,0
"04/02/08","10:06:07",17215.000,"cc",28336.297,6.00,6,0.100,15532.000,0.200,530.000,0.300,404.000,0.500,542.000,1.000,207.000,5.000,0
"04/02/08","10:06:13",17394.000,"cc",28261.469,6.00,6,0.100,15611.000,0.200,528.000,0.300,482.000,0.500,565.000,1.000,208.000,5.000,0
"04/02/08","10:06:19",17478.000,"cc",28273.975,6.00,6,0.100,15813.000,0.200,519.000,0.300,400.000,0.500,532.000,1.000,214.000,5.000,0
"04/02/08","10:06:25",17233.000,"cc",28363.594,6.00,6,0.100,15562.000,0.200,545.000,0.300,367.000,0.500,572.000,1.000,187.000,5.000,0
"04/02/08","10:06:31",17584.000,"cc",28329.432,6.00,6,0.100,15877.000,0.200,541.000,0.300,430.000,0.500,534.000,1.000,202.000,5.000,0
"04/02/08","10:06:37",17259.000,"cc",28300.682,6.00,6,0.100,15703.000,0.200,475.000,0.300,372.000,0.500,501.000,1.000,208.000,5.000,0
"04/02/08","10:06:43",17204.000,"cc",28321.123,6.00,6,0.100,15599.000,0.200,508.000,0.300,375.000,0.500,521.000,1.000,201.000,5.000,0
"04/02/08","10:06:49",17372.000,"cc",28320.356,6.00,6,0.100,15685.000,0.200,545.000,0.300,421.000,0.500,495.000,1.000,226.000,5.000,0
"04/02/08","10:06:55",17353.000,"cc",28334.238,6.00,6,0.100,15678.000,0.200,515.000,0.300,409.000,0.500,525.000,1.000,226.000,5.000,0
"04/02/08","10:07:01",17460.000,"cc",28400.357,6.00,6,0.100,15830.000,0.200,504.000,0.300,428.000,0.500,506.000,1.000,192.000,5.000,0
"04/02/08","10:07:07",17040.000,"cc",28299.947,6.00,6,0.100,15417.000,0.200,488.000,0.300,393.000,0.500,547.000,1.000,195.000,5.000,0
"04/02/08","10:07:13",16954.000,"cc",28343.211,6.00,6,0.100,15412.000,0.200,497.000,0.300,368.000,0.500,458.000,1.000,219.000,5.000,0
"04/02/08","10:07:19",17130.000,"cc",28282.197,6.00,6,0.100,15459.000,0.200,536.000,0.300,427.000,0.500,523.000,1.000,185.000,5.000,0
"04/02/08","10:07:25",17524.000,"cc",28251.615,6.00,6,0.100,15651.000,0.200,558.000,0.300,479.000,0.500,614.000,1.000,222.000,5.000,0
"04/02/08","10:07:31",17654.000,"cc",28312.725,6.00,6,0.100,15705.000,0.200,562.000,0.300,506.000,0.500,644.000,1.000,237.000,5.000,0
"04/02/08","10:07:37",17320.000,"cc",28378.953,6.00,6,0.100,15591.000,0.200,538.000,0.300,406.000,0.500,567.000,1.000,218.000,5.000,0
"04/02/08","10:07:43",17280.000,"cc",28289.645,6.00,6,0.100,15655.000,0.200,513.000,0.300,399.000,0.500,498.000,1.000,215.000,5.000,0
"04/02/08","10:07:49",16803.000,"cc",28279.732,6.00,6,0.100,15132.000,0.200,505.000,0.300,415.000,0.500,542.000,1.000,209.000,5.000,0
"04/02/08","10:07:55",16706.000,"cc",28334.508,6.00,6,0.100,15143.000,0.200,450.000,0.300,401.000,0.500,513.000,1.000,199.000,5.000,0
"04/02/08","10:08:01",16833.000,"cc",28342.881,6.00,6,0.100,15119.000,0.200,539.000,0.300,403.000,0.500,542.000,1.000,230.000,5.000,0
"04/02/08","10:08:07",16782.000,"cc",28321.166,6.00,6,0.100,14961.000,0.200,548.000,0.300,441.000,0.500,612.000,1.000,220.000,5.000,0
"04/02/08","10:08:13",16687.000,"cc",28311.881,6.00,6,0.100,15004.000,0.200,546.000,0.300,409.000,0.500,509.000,1.000,219.000,5.000,0
"04/02/08","10:08:19",16213.000,"cc",28265.928,6.00,6,0.100,14760.000,0.200,451.000,0.300,357.000,0.500,452.000,1.000,193.000,5.000,0
"04/02/08","10:08:25",16492.000,"cc",28307.611,6.00,6,0.100,14890.000,0.200,525.000,0.300,394.000,0.500,512.000,1.000,171.000,5.000,0
"04/02/08","10:08:31",16553.000,"cc",28319.111,6.00,6,0.100,14905.000,0.200,510.000,0.300,419.000,0.500,499.000,1.000,220.000,5.000,0
"04/02/08","10:08:37",16252.000,"cc",28322.432,6.00,6,0.100,14805.000,0.200,454.000,0.300,349.000,0.500,464.000,1.000,180.000,5.000,0
"04/02/08","10:08:43",15875.000,"cc",28293.250,6.00,6,0.100,14440.000,0.200,434.000,0.300,349.000,0.500,465.000,1.000,187.000,5.000,0
"04/02/08","10:08:49",15959.000,"cc",28380.074,6.00,6,0.100,14505.000,0.200,430.000,0.300,355.000,0.500,484.000,1.000,185.000,5.000,0
"04/02/08","10:08:55",15710.000,"cc",28261.797,6.00,6,0.100,14252.000,0.200,421.000,0.300,398.000,0.500,475.000,1.000,164.000,5.000,0
"04/02/08","10:09:01",16042.000,"cc",28297.398,6.00,6,0.100,14503.000,0.200,448.000,0.300,404.000,0.500,500.000,1.000,187.000,5.000,0
"04/02/08","10:09:07",15978.000,"cc",28354.063,6.00,6,0.100,14349.000,0.200,556.000,0.300,368.000,0.500,519.000,1.000,186.000,5.000,0
"04/02/08","10:09:13",15604.000,"cc",28293.981,6.00,6,0.100,14167.000,0.200,465.000,0.300,335.000,0.500,471.000,1.000,166.000,5.000,0
"04/02/08","10:09:19",15459.000,"cc",28342.400,6.00,6,0.100,14065.000,0.200,443.000,0.300,351.000,0.500,436.000,1.000,164.000,5.000,0
"04/02/08","10:09:25",15356.000,"cc",28310.104,6.00,6,0.100,14113.000,0.200,395.000,0.300,282.000,0.500,408.000,1.000,158.000,5.000,0
"04/02/08","10:09:31",15305.000,"cc",28291.531,6.00,6,0.100,14030.000,0.200,420.000,0.300,300.000,0.500,402.000,1.000,153.000,5.000,0
"04/02/08","10:09:37",15348.000,"cc",28295.193,6.00,6,0.100,13939.000,0.200,462.000,0.300,344.000,0.500,424.000,1.000,179.000,5.000,0
"04/02/08","10:09:43",15351.000,"cc",28276.875,6.00,6,0.100,14024.000,0.200,452.000,0.300,342.000,0.500,372.000,1.000,161.000,5.000,0
"04/02/08","10:09:49",15590.000,"cc",28342.723,6.00,6,0.100,14319.000,0.200,399.000,0.300,311.000,0.500,401.000,1.000,160.000,5.000,0
"04/02/08","10:09:55",15013.000,"cc",28327.645,6.00,6,0.100,13824.000,0.200,379.000,0.300,282.000,0.500,396.000,1.000,132.000,5.000,0
"04/02/08","10:10:01",14977.000,"cc",28345.065,6.00,6,0.100,13688.000,0.200,389.000,0.300,339.000,0.500,406.000,1.000,155.000,5.000,0
"04/02/08","10:10:07",14803.000,"cc",28316.811,6.00,6,0.100,13696.000,0.200,340.000,0.300,263.000,0.500,348.000,1.000,156.000,5.000,0
"04/02/08","10:10:13",14761.000,"cc",28302.438,6.00,6,0.100,13634.000,0.200,348.000,0.300,290.000,0.500,339.000,1.000,150.000,5.000,0
"04/02/08","10:10:19",14698.000,"cc",28322.832,6.00,6,0.100,13591.000,0.200,355.000,0.300,273.000,0.500,331.000,1.000,148.000,5.000,0
"04/02/08","10:10:25",14807.000,"cc",28308.941,6.00,6,0.100,13620.000,0.200,433.000,0.300,276.000,0.500,339.000,1.000,139.000,5.000,0
"04/02/08","10:10:31",14895.000,"cc",28346.445,6.00,6,0.100,13670.000,0.200,375.000,0.300,317.000,0.500,397.000,1.000,136.000,5.000,0
"04/02/08","10:10:37",15030.000,"cc",28295.147,6.00,6,0.100,13892.000,0.200,359.000,0.300,275.000,0.500,354.000,1.000,150.000,5.000,0
"04/02/08","10:10:43",15157.000,"cc",28386.393,6.00,6,0.100,13833.000,0.200,416.000,0.300,321.000,0.500,426.000,1.000,161.000,5.000,0
"04/02/08","10:10:49",14805.000,"cc",28336.449,6.00,6,0.100,13700.000,0.200,375.000,0.300,252.000,0.500,348.000,1.000,130.000,5.000,0
"04/02/08","10:10:55",14860.000,"cc",28286.354,6.00,6,0.100,13696.000,0.200,356.000,0.300,299.000,0.500,369.000,1.000,140.000,5.000,0
"04/02/08","10:11:01",15369.000,"cc",28285.357,6.00,6,0.100,14093.000,0.200,432.000,0.300,328.000,0.500,365.000,1.000,151.000,5.000,0
"04/02/08","10:11:07",15389.000,"cc",28333.102,6.00,6,0.100,14132.000,0.200,405.000,0.300,301.000,0.500,393.000,1.000,158.000,5.000,0
"04/02/08","10:11:13",15531.000,"cc",28294.080,6.00,6,0.100,14250.000,0.200,423.000,0.300,300.000,0.500,395.000,1.000,163.000,5.000,0
"04/02/08","10:11:19",15640.000,"cc",28320.045,6.00,6,0.100,14303.000,0.200,438.000,0.300,320.000,0.500,429.000,1.000,150.000,5.000,0
"04/02/08","10:11:25",15263.000,"cc",28352.816,6.00,6,0.100,13969.000,0.200,415.000,0.300,328.000,0.500,399.000,1.000,152.000,5.000,0
"04/02/08","10:11:31",15268.000,"cc",28346.898,6.00,6,0.100,14017.000,0.200,447.000,0.300,270.000,0.500,366.000,1.000,168.000,5.000,0
"04/02/08","10:11:37",15320.000,"cc",28267.701,6.00,6,0.100,14096.000,0.200,410.000,0.300,287.000,0.500,348.000,1.000,179.000,5.000,0
"04/02/08","10:11:43",15410.000,"cc",28336.785,6.00,6,0.100,14152.000,0.200,426.000,0.300,294.000,0.500,401.000,1.000,137.000,5.000,0
"04/02/08","10:11:49",15539.000,"cc",28249.102,6.00,6,0.100,14276.000,0.200,414.000,0.300,299.000,0.500,388.000,1.000,162.000,5.000,0
"04/02/08","10:11:55",15231.000,"cc",28357.684,6.00,6,0.100,14058.000,0.200,409.000,0.300,268.000,0.500,345.000,1.000,151.000,5.000,0
"04/02/08","10:12:01",15225.000,"cc",28290.406,6.00,6,0.100,14045.000,0.200,382.000,0.300,309.000,0.500,343.000,1.000,146.000,5.000,0
"04/02/08","10:12:07",15703.000,"cc",28297.801,6.00,6,0.100,14349.000,0.200,444.000,0.300,324.000,0.500,410.000,1.000,176.000,5.000,0
"04/02/08","10:12:13",15759.000,"cc",28316.348,6.00,6,0.100,14498.000,0.200,394.000,0.300,295.000,0.500,402.000,1.000,170.000,5.000,0
"04/02/08","10:12:19",15648.000,"cc",28303.897,6.00,6,0.100,14302.000,0.200,440.000,0.300,360.000,0.500,402.000,1.000,144.000,5.000,0
"04/02/08","10:12:25",15601.000,"cc",28327.164,6.00,6,0.100,14214.000,0.200,421.000,0.300,353.000,0.500,403.000,1.000,210.000,5.000,0
"04/02/08","10:12:31",16021.000,"cc",28304.551,6.00,6,0.100,14562.000,0.200,490.000,0.300,330.000,0.500,469.000,1.000,170.000,5.000,0
"04/02/08","10:12:37",15945.000,"cc",28330.625,6.00,6,0.100,14500.000,0.200,436.000,0.300,370.000,0.500,464.000,1.000,175.000,5.000,0
"04/02/08","10:12:43",16022.000,"cc",28377.440,6.00,6,0.100,14504.000,0.200,469.000,0.300,394.000,0.500,451.000,1.000,204.000,5.000,0
"04/02/08","10:12:49",16107.000,"cc",28282.156,6.00,6,0.100,14578.000,0.200,482.000,0.300,386.000,0.500,476.000,1.000,185.000,5.000,0
"04/02/08","10:12:55",15636.000,"cc",28292.594,6.00,6,0.100,14233.000,0.200,442.000,0.300,373.000,0.500,421.000,1.000,167.000,5.000,0
"04/02/08","10:13:01",16301.000,"cc",28323.414,6.00,6,0.100,14823.000,0.200,479.000,0.300,377.000,0.500,448.000,1.000,174.000,5.000,0
"04/02/08","10:13:07",16466.000,"cc",28342.709,6.00,6,0.100,14889.000,0.200,502.000,0.300,391.000,0.500,489.000,1.000,195.000,5.000,0
"04/02/08","10:13:13",16455.000,"cc",28344.422,6.00,6,0.100,14873.000,0.200,504.000,0.300,378.000,0.500,492.000,1.000,208.000,5.000,0
"04/02/08","10:13:19",16533.000,"cc",28288.104,6.00,6,0.100,15001.000,0.200,444.000,0.300,407.000,0.500,492.000,1.000,189.000,5.000,0
"04/02/08","10:13:25",16514.000,"cc",28303.561,6.00,6,0.100,15005.000,0.200,475.000,0.300,406.000,0.500,437.000,1.000,191.000,5.000,0
"04/02/08","10:13:31",16529.000,"cc",28339.057,6.00,6,0.100,15090.000,0.200,472.000,0.300,327.000,0.500,447.000,1.000,193.000,5.000,0
"04/02/08","10:13:37",16656.000,"cc",28283.676,6.00,6,0.100,15286.000,0.200,442.000,0.300,352.000,0.500,404.000,1.000,172.000,5.000,0
"04/02/08","10:13:43",16567.000,"cc",28315.789,6.00,6,0.100,15301.000,0.200,409.000,0.300,309.000,0.500,378.000,1.000,170.000,5.000,0
"04/02/08","10:13:49",16261.000,"cc",28297.451,6.00,6,0.100,15014.000,0.200,398.000,0.300,298.000,0.500,392.000,1.000,159.000,5.000,0
"04/02/08","10:13:55",16117.000,"cc",28314.313,6.00,6,0.100,14706.000,0.200,460.000,0.300,352.000,0.500,398.000,1.000,201.000,5.000,0
"04/02/08","10:14:01",16582.000,"cc",28303.523,6.00,6,0.100,14942.000,0.200,529.000,0.300,398.000,0.500,513.000,1.000,200.000,5.000,0
"04/02/08","10:14:07",16396.000,"cc",28435.365,6.00,6,0.100,14947.000,0.200,435.000,0.300,377.000,0.500,450.000,1.000,187.000,5.000,0
"04/02/08","10:14:13",16572.000,"cc",28300.736,6.00,6,0.100,15068.000,0.200,486.000,0.300,368.000,0.500,462.000,1.000,188.000,5.000,0
"04/02/08","10:14:19",16384.000,"cc",28262.266,6.00,6,0.100,14938.000,0.200,478.000,0.300,332.000,0.500,424.000,1.000,212.000,5.000,0
"04/02/08","10:14:25",16333.000,"cc",28306.734,6.00,6,0.100,14871.000,0.200,442.000,0.300,382.000,0.500,464.000,1.000,174.000,5.000,0
"04/02/08","10:14:31",16710.000,"cc",28263.309,6.00,6,0.100,15305.000,0.200,427.000,0.300,337.000,0.500,458.000,1.000,183.000,5.000,0
"04/02/08","10:14:37",16661.000,"cc",28400.816,6.00,6,0.100,15313.000,0.200,415.000,0.300,344.000,0.500,424.000,1.000,165.000,5.000,0
"04/02/08","10:14:43",16863.000,"cc",28290.893,6.00,6,0.100,15335.000,0.200,449.000,0.300,391.000,0.500,468.000,1.000,220.000,5.000,0
"04/02/08","10:14:49",16825.000,"cc",28281.988,6.00,6,0.100,15317.000,0.200,484.000,0.300,348.000,0.500,482.000,1.000,194.000,5.000,0
"04/02/08","10:14:55",16723.000,"cc",28330.986,6.00,6,0.100,15184.000,0.200,473.000,0.300,370.000,0.500,470.000,1.000,226.000,5.000,0
"04/02/08","10:15:01",16483.000,"cc",28370.582,6.00,6,0.100,15027.000,0.200,478.000,0.300,346.000,0.500,463.000,1.000,169.000,5.000,0
"04/02/08","10:15:07",16547.000,"cc",28253.975,6.00,6,0.100,15136.000,0.200,440.000,0.300,327.000,0.500,466.000,1.000,178.000,5.000,0
"04/02/08","10:15:13",16414.000,"cc",28313.100,6.00,6,0.100,15056.000,0.200,433.000,0.300,328.000,0.500,418.000,1.000,179.000,5.000,0
"04/02/08","10:15:19",16245.000,"cc",28340.922,6.00,6,0.100,14900.000,0.200,425.000,0.300,307.000,0.500,439.000,1.000,174.000,5.000,0
"04/02/08","10:15:25",16411.000,"cc",28267.162,6.00,6,0.100,15132.000,0.200,408.000,0.300,304.000,0.500,396.000,1.000,171.000,5.000,0
"04/02/08","10:15:31",16332.000,"cc",28345.762,6.00,6,0.100,14993.000,0.200,419.000,0.300,306.000,0.500,438.000,1.000,176.000,5.000,0
"04/02/08","10:15:37",16932.000,"cc",28318.857,6.00,6,0.100,15589.000,0.200,457.000,0.300,315.000,0.500,399.000,1.000,172.000,5.000,0
"04/02/08","10:15:43",16704.000,"cc",28291.879,6.00,6,0.100,15357.000,0.200,473.000,0.300,283.000,0.500,446.000,1.000,145.000,5.000,0
"04/02/08","10:15:49",16505.000,"cc",28347.660,6.00,6,0.100,15127.000,0.200,444.000,0.300,311.000,0.500,438.000,1.000,185.000,5.000,0
"04/02/08","10:15:55",16963.000,"cc",28293.307,6.00,6,0.100,15493.000,0.200,489.000,0.300,376.000,0.500,433.000,1.000,172.000,5.000,0
"04/02/08","10:16:01",16956.000,"cc",28344.002,6.00,6,0.100,15413.000,0.200,482.000,0.300,373.000,0.500,483.000,1.000,205.000,5.000,0
"04/02/08","10:16:07",17099.000,"cc",28275.387,6.00,6,0.100,15486.000,0.200,478.000,0.300,394.000,0.500,545.000,1.000,196.000,5.000,0
"04/02/08","10:16:13",17249.000,"cc",28288.201,6.00,6,0.100,15689.000,0.200,485.000,0.300,350.000,0.500,504.000,1.000,221.000,5.000,0
"04/02/08","10:16:19",16888.000,"cc",28347.643,6.00,6,0.100,15347.000,0.200,438.000,0.300,421.000,0.500,493.000,1.000,189.000,5.000,0
"04/02/08","10:16:25",16794.000,"cc",28322.256,6.00,6,0.100,15406.000,0.200,448.000,0.300,314.000,0.500,444.000,1.000,182.000,5.000,0
"04/02/08","10:16:31",16887.000,"cc",28293.316,6.00,6,0.100,15426.000,0.200,439.000,0.300,359.000,0.500,480.000,1.000,183.000,5.000,0
"04/02/08","10:16:37",16991.000,"cc",28277.465,6.00,6,0.100,15595.000,0.200,453.000,0.300,344.000,0.500,424.000,1.000,175.000,5.000,0
"04/02/08","10:16:43",17139.000,"cc",28338.307,6.00,6,0.100,15670.000,0.200,467.000,0.300,330.000,0.500,464.000,1.000,208.000,5.000,0